2020-053B

Last updated on Oct. 31, 2020, 5:53 a.m. UTC

1 45986U 20053B   20304.92202256 -.00000176  00000-0  10000-3 0  9998
2 45986   0.2850 260.6425 2023066 200.5759 348.6192  1.00335198  1038
UTC
Height (km)
Latitude
Longitude
Inclination
Orbital Period
UTC large
Height (km)
Speed (km/s)
/
Latitude / Longitude
Inclination (degrees)
Orbital Period (minutes)
Azimuth
Elevation
Range (km)
Doppler Factor
iOS Compass Heading
iOS Angle

Next 30 passes for location: Hong Kong

Rise time Rise Azimuth (degrees) Set time Set Azimuth (degrees) Duration Max altitude (degrees)

No matching passes for this satellites